Simultaneous Nadir Overpasses (SNOs) Predictions

Prediction of SNOs between AURA and NPP Satellite Orbit:

Table of predicted SNOs for the next 14.0 days since TLE Epoch: 2/25/2023
Index Date (AURA) Time (AURA) Lat,Lon (AURA) SZA (AURA ) Date (NPP) Time (NPP) Lat,Lon (NPP) SZA (NPP ) Distance(km) Time Diff (sec)
1 02/26/2023 19:10:33 79.14, 147.49 101.83 02/26/2023 19:09:28 79.13, 147.36 101.90 2.95 65
2 02/26/2023 19:59:52 -79.45, -42.83 78.63 02/26/2023 20:00:04 -79.46, -42.83 78.64 0.20 12
3 03/01/2023 11:26:50 79.28, -95.73 100.62 03/01/2023 11:26:17 79.27, -95.83 100.67 2.21 33
4 03/01/2023 12:16:09 -79.58, 74.01 79.84 03/01/2023 12:16:53 -79.59, 74.04 79.88 0.62 44
5 03/04/2023 03:43:07 79.40, 21.02 99.41 03/04/2023 03:43:07 79.40, 20.95 99.42 1.44 0
6 03/04/2023 04:30:02 -81.46,-114.57 89.00 03/04/2023 04:31:15 -80.73,-115.94 89.35 84.53 73
7 03/06/2023 19:10:03 -79.30, -31.35 81.49 03/06/2023 19:09:19 -79.31, -31.29 81.47 1.32 44
8 03/06/2023 19:59:23 79.52, 137.74 98.20 03/06/2023 19:59:57 79.52, 137.70 98.18 0.67 34
9 03/09/2023 11:26:18 -79.41, 85.33 82.70 03/09/2023 11:26:09 -79.42, 85.40 82.71 1.74 9



Historial Predications of SNOs between AURA and NPP
